User: anonymous   Login
Location: Unspecified
(0.0000°N, 0.0000°E)
Time: 07:12:59
(UTC+00:00)
Language:

OBJECT BE - Orbit

View from above orbital plane
View from above orbital plane
View from above satellite
View from above satellite

Ground track
Ground track

The orbit data is extracted from the following two-line orbital elements,

1 42000U 17008BE  17177.88901388 +.00001037 +00000-0 +48166-4 0  9990
2 42000 097.4954 239.2068 0009191 167.2222 192.9249 15.22227339019336
Epoch (UTC): 26 June 2017 21:20:10
Eccentricity: 0.0009191
inclination: 97.4954°
perigee height: 493 km
apogee height: 505 km
right ascension of ascending node: 239.2068°
argument of perigee: 167.2222°
revolutions per day: 15.22227339
mean anomaly at epoch: 192.9249°
orbit number at epoch: 1933

The dashed part of the orbit path shows where the satellite is in the earth's shadow,  

DLR